Wind_Speed
15 15 15 14 15 15 15 16 20 25 29 31 33 37 39 38 38 38 39 41 42 41 41 41 41 41 42 42 42 41 40 39 37 37 39 38 37 36 34 34 33 31 30 30 28 27 27 27 26 25 23 22 21 18 17 18 18 16 16 14 12 14 16
14 15 15 15 16 17 17 19 23 25 29 32 33 36 38 38 39 39 40 41 43 42 42 42 41 42 42 42 42 41 41 40 38 37 38 39 38 37 35 35 34 33 32 31 29 28 27 27 27 27 25 23 22 21 18 18 17 17 18 18 14 13 16
16 15 16 17 17 18 19 20 24 26 30 32 33 36 38 40 41 42 41 42 42 42 42 43 43 43 42 42 41 42 42 40 39 38 39 40 40 38 36 35 35 34 33 32 30 29 28 27 27 27 26 24 23 22 21 20 19 19 19 20 19 16 16
18 18 18 19 19 18 17 19 23 27 30 33 36 38 40 41 42 42 42 43 43 41 42 43 43 43 42 41 41 42 43 42 40 39 40 41 41 40 37 36 35 34 33 32 31 29 29 27 26 25 25 24 23 23 22 22 21 21 21 21 21 20 19
19 18 16 16 15 15 15 17 23 28 29 33 37 38 40 41 40 40 41 42 43 43 44 43 42 42 41 42 41 41 43 44 43 41 40 41 41 40 38 37 36 35 34 33 31 30 29 28 26 25 24 24 24 24 24 23 23 23 23 23 23 23 22
17 16 15 14 14 15 16 18 25 30 31 33 37 37 38 39 39 39 40 40 42 43 43 42 42 41 41 42 41 41 42 44 43 42 41 40 40 41 41 40 38 36 35 34 33 31 30 29 28 27 26 25 26 26 25 25 25 25 25 25 25 24 24
16 16 16 15 15 16 17 18 24 30 32 33 35 36 36 38 38 38 38 39 41 41 41 41 42 41 41 41 41 41 41 42 43 43 42 41 40 41 42 42 40 39 37 36 35 34 33 32 31 29 28 27 28 28 28 27 27 27 26 26 26 25 25
17 16 17 17 16 17 16 16 21 27 30 31 32 33 34 36 37 37 37 38 40 40 41 42 42 42 41 40 40 41 41 41 42 43 43 41 41 41 42 42 42 41 39 38 37 37 36 35 34 32 30 29 30 30 30 30 29 28 28 27 27 27 26
16 16 17 17 17 17 16 16 21 26 27 29 30 32 34 35 36 37 38 38 38 39 41 42 42 43 42 41 41 41 40 40 40 42 43 42 42 42 42 42 42 42 40 40 40 39 38 37 36 34 32 31 32 32 32 32 32 31 30 29 29 29 28
10 14 16 17 17 16 14 15 19 20 21 24 27 30 33 34 35 36 36 37 38 39 41 41 42 41 41 41 42 41 40 39 39 40 41 42 42 43 43 42 42 41 41 41 40 40 39 39 37 36 34 34 34 34 34 34 34 33 32 31 30 30 30
4 4 7 11 14 15 14 14 15 15 19 23 25 28 31 32 34 35 36 36 37 39 40 40 40 40 41 41 40 40 41 40 40 40 41 42 42 43 43 43 42 41 41 41 40 39 39 39 38 37 36 36 36 36 36 36 36 35 35 34 33 32 32
13 10 7 4 1 5 8 12 13 15 19 23 25 27 30 32 33 34 35 36 36 37 38 40 40 39 40 40 39 39 41 42 41 41 42 42 43 43 43 43 42 41 41 41 40 39 39 39 39 39 39 38 38 37 37 37 37 37 36 35 34 34 33
16 14 13 14 13 10 6 1 5 10 17 24 27 29 30 32 34 34 35 36 36 37 37 38 39 39 39 39 39 39 40 42 43 43 42 42 42 42 42 42 42 41 42 41 41 40 39 39 39 40 40 40 39 39 39 38 38 38 37 37 35 34 34
19 18 17 17 16 16 15 13 9 5 4 12 20 26 29 30 32 35 36 36 36 36 37 38 38 39 39 38 39 40 41 42 43 43 42 42 41 41 41 42 42 42 42 41 41 41 41 40 40 40 40 41 41 40 39 39 39 39 38 37 36 35 34
20 20 19 19 18 16 16 16 14 13 12 11 6 7 16 23 26 29 31 34 34 34 35 37 38 38 38 38 39 40 41 41 41 41 41 40 40 41 42 42 42 42 41 41 41 42 42 41 41 40 40 40 41 41 40 39 39 39 39 38 37 36 35
18 18 18 18 17 15 15 15 14 15 17 20 21 17 9 7 15 21 24 26 29 31 32 35 37 37 37 38 39 40 39 39 39 39 39 40 41 41 42 42 41 41 41 41 41 41 41 41 40 40 40 40 40 40 39 39 39 40 40 40 39 37 36
15 16 17 17 17 16 16 16 15 15 17 19 20 21 20 17 11 11 21 23 23 24 26 29 32 34 36 37 37 37 37 38 39 39 39 40 41 41 42 42 41 41 41 41 41 41 40 40 40 40 40 40 40 40 39 39 39 40 41 42 41 39 37
13 14 16 16 16 16 17 17 15 15 17 20 21 20 21 23 21 12 10 21 24 23 24 27 30 32 35 36 36 37 38 38 39 39 40 40 41 41 41 41 41 40 40 40 40 40 40 40 40 41 40 39 39 40 40 40 40 40 41 42 42 41 38
12 13 14 14 14 15 15 15 15 17 19 20 20 21 21 20 19 19 13 8 20 27 29 30 33 34 36 36 36 36 38 38 39 39 40 41 41 41 40 39 40 40 40 40 40 39 39 40 41 41 40 40 39 39 40 40 41 41 42 42 43 42 40
11 11 12 13 13 14 14 15 18 21 22 23 22 22 21 19 18 18 16 10 11 23 31 33 32 33 33 33 32 33 34 35 37 39 39 40 40 39 39 39 40 41 40 39 39 39 39 40 40 41 41 41 40 40 40 40 41 42 43 43 43 42 41
10 11 12 13 12 12 13 17 21 23 25 26 25 23 21 21 23 23 17 13 10 13 23 32 34 34 33 33 33 34 34 34 36 37 38 38 38 38 39 40 40 40 40 39 38 39 40 40 39 40 41 42 41 40 39 40 41 42 43 44 43 42 41
9 9 10 12 13 13 14 17 19 21 23 24 23 22 24 25 25 25 22 16 13 13 15 22 29 32 34 35 35 36 36 35 36 37 37 37 37 38 39 40 40 40 39 38 37 37 38 38 39 39 40 41 40 39 39 40 41 42 43 44 43 42 41
7 9 10 13 15 16 17 18 19 20 22 23 22 22 27 30 28 25 24 20 14 14 16 18 23 28 30 32 34 36 36 35 34 36 37 37 37 39 40 40 40 39 38 37 36 36 36 37 38 38 39 40 40 40 40 40 41 42 43 44 44 42 41
7 10 11 13 16 18 18 20 20 20 22 23 23 23 25 28 29 27 23 20 17 15 16 17 21 26 28 30 33 34 35 35 34 34 36 37 39 40 39 39 38 38 38 37 37 36 36 36 36 37 38 39 40 41 41 40 41 42 43 44 44 43 42
9 12 13 14 16 17 18 20 19 20 22 23 25 27 25 23 26 26 21 19 19 18 18 18 18 19 23 28 32 34 34 34 34 34 36 38 40 39 38 38 38 37 37 37 37 37 36 35 35 36 37 38 39 40 41 40 40 41 42 43 43 43 43
10 12 14 15 17 18 17 17 17 19 21 22 25 28 25 22 22 22 20 20 20 18 18 19 19 18 20 22 26 30 34 35 35 36 38 39 39 38 37 37 36 35 36 37 36 35 35 34 34 35 36 37 37 39 40 41 40 40 42 43 43 43 44
15 14 13 14 17 20 19 17 16 17 19 21 24 25 25 23 21 20 21 21 19 18 19 21 22 22 22 22 22 25 31 35 36 37 39 40 39 37 36 36 35 36 36 36 35 34 34 34 34 34 34 36 36 38 40 41 41 41 42 43 43 43 44
18 17 14 12 14 18 20 19 17 17 19 21 22 22 24 24 21 21 21 21 21 24 24 24 24 25 25 26 24 23 24 30 36 38 38 39 38 36 36 36 36 36 36 35 34 34 35 34 33 33 33 34 36 38 39 41 42 42 42 43 43 44 45
18 18 17 14 14 17 19 19 18 17 19 21 21 21 22 22 22 23 23 23 26 30 29 27 26 26 26 27 26 24 24 26 32 37 37 37 37 37 37 36 36 36 35 34 33 33 34 34 33 32 32 33 35 38 39 40 41 42 43 43 43 43 45
18 20 19 17 17 18 18 19 20 20 19 21 22 21 21 20 21 23 25 28 31 32 31 29 27 26 25 25 24 24 25 25 29 35 37 37 38 38 37 36 36 35 34 34 33 32 32 33 33 32 31 31 33 35 37 38 39 41 44 45 43 43 44
20 21 21 20 20 20 19 19 21 21 21 22 22 22 21 21 21 22 26 31 34 33 32 31 28 26 25 24 24 24 24 25 27 31 36 37 37 37 37 36 35 33 33 33 32 32 31 32 32 32 31 30 30 32 34 36 36 38 42 45 45 45 44
20 22 22 22 22 22 20 19 20 21 21 23 24 23 22 22 22 24 27 31 32 32 32 31 28 25 24 24 26 27 26 25 27 30 34 36 37 37 37 36 35 33 32 32 32 33 32 31 31 31 30 30 31 31 32 33 34 36 39 42 44 45 46
19 22 23 24 24 23 21 19 19 20 21 23 25 24 23 24 25 26 28 29 29 30 31 29 26 24 25 26 28 28 26 25 27 29 31 33 35 35 35 35 35 34 33 33 33 33 32 30 30 30 30 30 31 30 30 31 33 35 36 38 41 44 45
19 22 25 27 27 24 20 17 18 20 21 24 26 25 23 24 26 29 30 28 26 26 27 27 25 24 25 27 26 26 26 25 27 30 30 31 33 33 32 33 34 34 35 37 37 33 31 30 30 31 32 31 30 29 29 29 32 34 36 38 41 44 45
22 24 25 27 28 26 21 17 18 19 21 25 27 26 24 24 27 30 30 28 26 25 26 27 26 24 25 25 24 24 25 25 27 29 31 31 31 33 34 35 37 37 38 39 40 38 37 35 35 35 35 33 32 31 29 29 34 39 43 44 45 45 46
22 25 26 27 28 28 24 18 17 19 21 24 27 26 24 24 28 31 30 28 27 26 26 28 28 25 25 23 22 22 23 24 27 28 29 30 31 32 32 31 33 36 35 35 37 40 41 40 39 39 36 34 35 36 35 35 37 39 40 42 44 45 45
22 24 26 27 27 26 24 19 17 19 21 24 27 26 24 25 29 32 32 30 29 29 28 29 28 25 23 22 21 21 20 19 24 27 29 32 32 31 29 28 30 34 36 35 35 37 39 40 40 39 37 35 36 36 37 37 37 34 34 36 39 41 42
25 25 26 27 25 23 22 19 18 20 21 24 26 26 25 26 30 33 32 32 32 31 30 28 27 25 22 20 19 18 15 10 14 17 21 25 28 30 31 29 27 26 30 33 34 35 38 39 38 37 36 37 37 36 36 37 37 36 35 34 36 38 41
Wind_Direction
189 193 191 189 190 190 191 189 187 186 184 183 183 183 184 184 184 184 185 186 187 188 190 192 194 195 197 199 200 201 202 202 204 205 204 204 206 205 206 207 206 206 206 206 206 205 205 207 208 210 213 214 215 213 204 201 202 206 211 213 213 220 221
190 194 193 190 191 192 193 191 190 189 185 185 183 183 185 185 186 186 187 188 189 190 191 192 195 197 199 201 201 202 203 202 203 204 204 204 205 206 208 211 210 209 209 210 210 208 207 208 210 211 213 214 216 215 208 204 206 206 209 214 217 218 217
192 194 193 191 192 193 193 191 192 192 188 186 184 184 186 187 188 188 188 189 190 191 192 193 196 198 200 201 202 203 204 203 202 203 203 204 205 206 208 212 212 211 211 212 213 213 211 210 212 213 215 216 217 217 213 211 211 211 210 213 218 217 211
194 195 193 193 193 191 191 191 193 193 190 188 186 186 188 189 189 190 190 190 190 191 193 195 197 199 201 202 202 203 204 204 203 203 204 205 206 207 208 210 212 213 214 213 214 216 214 213 213 214 217 219 220 219 217 215 214 214 215 216 219 221 218
195 196 193 193 192 189 191 191 193 193 191 191 189 188 189 189 189 190 191 192 192 193 195 196 197 199 201 202 203 204 205 205 205 204 204 205 206 207 208 209 210 213 215 215 215 216 216 216 215 216 219 221 223 223 223 222 219 217 219 221 224 225 225
193 192 190 191 189 189 191 192 193 193 191 190 190 190 190 189 190 191 192 193 194 195 196 196 198 200 201 203 204 206 206 206 206 205 205 205 206 208 210 211 211 212 214 215 216 217 217 218 218 220 223 224 225 226 226 227 225 223 223 225 228 229 229
191 189 189 189 188 190 193 192 193 194 193 191 190 190 189 189 191 192 192 193 194 195 195 196 198 200 202 203 205 206 207 207 207 206 206 207 207 209 212 213 213 214 215 216 217 219 219 221 223 225 227 226 226 228 229 229 228 227 226 227 230 232 232
188 189 189 187 187 190 192 192 192 193 193 192 190 190 190 190 191 192 192 194 195 195 195 196 198 200 202 204 205 207 208 208 208 207 207 208 209 211 213 214 215 216 217 217 219 221 222 224 226 227 228 228 228 230 230 230 229 228 227 227 229 232 233
189 187 189 187 187 191 191 191 193 192 193 192 190 190 190 190 192 193 194 194 194 196 197 198 199 200 202 203 205 208 209 210 210 209 208 208 210 212 213 215 216 217 217 219 220 222 224 226 227 227 228 228 229 230 231 231 230 228 228 228 229 231 232
204 197 195 188 186 191 189 186 189 191 193 193 191 191 191 192 193 194 195 195 194 196 198 198 200 201 202 203 205 207 208 211 212 212 211 210 211 213 214 215 217 217 218 219 220 221 223 225 227 228 228 229 229 230 230 229 229 228 228 230 230 231 233
332 236 211 201 197 194 184 179 183 189 194 195 194 194 194 194 195 195 195 195 196 197 197 198 200 201 202 204 205 205 207 210 212 213 214 213 213 214 215 217 217 218 218 219 220 221 222 224 225 226 227 228 229 229 229 228 228 228 228 230 231 231 233
15 22 30 22 273 213 191 184 186 189 192 194 195 196 196 197 197 197 197 197 196 196 197 198 199 200 202 203 204 206 207 209 211 214 216 216 215 216 216 218 219 220 220 220 220 221 222 223 223 224 226 228 229 230 230 229 229 228 228 229 229 230 232
16 25 36 38 32 22 16 352 212 202 198 197 197 197 197 198 198 197 198 198 197 196 196 197 198 199 201 203 204 207 209 209 211 213 216 217 218 218 218 219 221 222 222 223 222 222 222 223 224 224 226 227 229 230 231 230 229 229 229 228 228 229 230
16 19 25 33 34 30 27 21 7 348 234 210 207 205 202 200 200 199 199 199 198 196 196 196 197 199 200 202 204 207 209 211 212 213 215 217 219 220 220 221 222 223 224 224 224 224 223 224 225 225 226 228 229 230 231 231 229 228 228 228 227 227 229
16 15 18 23 26 27 28 24 17 13 16 18 357 249 221 213 209 206 203 202 199 197 196 196 196 198 200 201 205 208 210 211 212 214 215 216 219 220 221 222 223 224 225 226 226 225 225 225 225 226 226 227 228 230 230 230 229 229 228 228 227 226 228
16 13 12 15 19 22 24 21 17 13 16 21 18 7 344 267 232 219 212 207 204 201 198 196 196 197 199 202 206 208 210 211 212 213 214 216 218 220 221 222 223 224 225 226 226 226 226 225 225 226 226 227 227 228 229 229 229 230 230 229 228 227 227
18 13 9 8 11 15 17 15 13 12 13 13 10 8 7 0 334 245 218 211 207 204 198 195 196 198 200 204 207 207 208 210 211 212 214 215 217 219 221 221 222 223 224 225 226 227 226 225 225 225 226 227 227 228 228 228 229 230 231 231 231 229 226
18 14 8 6 7 10 11 8 6 7 7 6 4 3 1 0 2 349 246 216 208 203 199 197 197 199 203 205 206 207 208 209 211 212 213 215 216 218 220 220 221 223 224 225 225 226 225 224 224 224 225 226 227 228 228 229 229 230 231 232 232 231 228
13 10 7 8 6 5 5 1 0 0 359 360 0 358 353 353 2 9 356 261 219 207 202 203 202 201 204 206 205 206 208 209 210 211 213 214 215 217 218 219 220 222 223 224 225 225 225 224 224 224 224 225 226 227 228 229 230 230 231 233 233 232 230
7 2 4 8 9 8 0 353 354 354 353 355 355 351 351 352 355 1 8 351 255 221 208 207 209 208 208 209 208 209 210 210 210 212 213 214 214 215 216 217 219 221 222 224 224 224 225 225 224 224 224 225 226 227 228 229 230 230 231 232 233 233 232
1 358 359 1 6 10 2 353 351 349 347 350 350 348 350 352 349 346 353 1 327 262 221 209 209 210 211 212 211 211 212 212 213 213 214 214 213 214 215 216 218 220 221 222 223 224 225 225 225 224 224 225 225 226 228 229 230 230 231 232 233 233 233
354 353 357 355 356 0 359 354 349 344 341 341 344 350 352 349 346 341 338 340 339 315 266 228 215 212 212 213 213 213 212 213 214 214 213 212 212 213 214 215 217 218 219 221 223 225 225 225 225 225 225 225 225 225 228 230 230 230 230 232 233 233 232
354 351 350 347 349 352 352 350 348 343 338 336 343 355 355 347 342 340 334 329 331 325 301 266 239 226 220 218 217 217 216 216 216 215 214 212 211 213 214 215 216 217 217 218 221 223 224 224 225 225 225 225 224 224 227 229 230 230 230 231 231 231 230
353 354 346 340 343 347 348 347 348 345 339 337 342 352 352 346 340 336 331 330 329 323 310 287 260 244 235 228 225 222 220 220 220 218 216 214 213 214 214 215 216 216 215 216 219 222 224 224 225 225 225 225 225 224 226 229 230 230 231 232 231 230 229
341 344 341 338 338 341 345 345 343 343 343 341 341 344 347 344 337 331 326 328 327 318 308 299 283 266 254 244 237 232 226 224 223 221 218 217 216 216 215 215 216 215 215 216 218 221 223 224 224 224 225 225 225 225 226 228 230 230 231 232 231 230 229
336 333 332 335 335 335 340 343 341 341 342 339 337 340 343 340 333 326 321 322 321 312 301 297 296 293 283 269 254 244 236 229 225 222 220 219 218 217 216 216 215 215 215 215 217 219 221 223 224 224 224 225 225 226 226 227 229 230 231 231 231 230 229
328 326 323 324 328 333 336 339 340 338 335 334 336 340 342 339 331 323 319 317 311 302 298 298 298 297 294 289 277 259 244 234 227 224 221 220 219 218 217 216 215 214 214 214 215 216 219 221 223 223 224 224 224 225 226 227 227 229 231 231 231 230 229
323 322 321 317 324 333 333 332 333 332 330 333 337 340 341 336 326 319 316 310 302 300 300 299 297 296 294 292 288 278 261 243 231 226 223 220 218 217 217 216 216 215 214 213 213 214 216 219 221 222 223 224 224 224 225 226 227 228 230 231 230 230 229
319 316 316 317 324 330 330 328 326 325 327 331 333 338 342 335 323 318 314 305 303 306 304 299 295 293 292 290 287 284 278 259 239 228 223 220 217 215 216 215 214 214 214 212 212 213 215 217 218 220 221 222 223 224 225 225 225 226 229 230 230 230 230
315 313 313 315 321 327 328 325 321 321 326 330 331 337 341 335 323 315 309 306 309 309 305 300 297 291 288 287 284 281 281 271 250 232 224 220 216 213 214 213 211 211 212 211 211 211 213 215 216 218 219 220 222 223 224 224 224 225 228 230 230 230 230
309 310 311 312 317 322 323 320 317 318 324 329 332 335 338 336 325 310 305 309 313 311 305 302 298 292 286 285 285 282 280 275 258 237 225 220 215 211 211 209 208 208 208 208 209 210 213 215 215 216 219 220 221 223 223 223 223 224 227 230 231 231 231
305 308 310 311 313 315 317 317 316 317 322 328 331 333 334 335 327 313 308 312 314 312 308 302 295 290 286 285 286 285 280 272 258 239 225 219 214 211 210 207 204 204 205 206 208 210 213 214 214 216 219 221 222 223 223 222 223 224 226 228 230 232 233
302 306 307 307 308 309 311 314 315 317 321 325 327 329 330 331 328 320 316 315 314 313 310 301 290 286 286 287 288 288 281 267 250 234 223 216 212 210 209 206 203 203 203 204 207 210 212 213 213 215 218 220 222 223 223 222 222 223 225 227 229 231 233
299 301 303 303 303 304 305 308 313 316 319 320 322 324 325 326 328 326 323 319 315 314 312 303 292 286 288 289 289 288 282 265 244 229 218 212 209 207 205 204 203 203 205 207 207 207 209 211 214 216 218 220 221 221 222 223 223 223 224 226 227 229 231
295 295 296 299 300 299 298 302 309 313 314 316 319 321 322 324 327 328 327 323 318 316 315 310 302 295 293 293 292 290 282 263 241 226 216 208 206 206 205 205 204 205 209 211 211 210 210 211 214 217 218 219 220 221 221 222 224 226 227 227 228 229 229
290 290 291 294 296 294 292 295 305 309 310 314 319 320 319 322 327 329 329 326 321 318 314 310 306 301 297 296 299 299 287 260 237 223 213 206 203 203 203 204 206 208 210 212 213 214 214 215 217 219 218 219 222 224 225 226 229 231 231 231 232 232 232
282 284 286 289 290 289 287 292 302 305 308 317 322 319 316 320 327 331 331 327 322 318 313 308 304 299 296 296 303 310 301 264 233 218 210 206 202 198 195 196 201 206 208 210 212 214 216 219 221 222 220 221 223 227 230 232 235 237 238 236 235 236 236
278 278 280 282 283 282 282 289 300 304 309 319 322 317 315 320 328 332 330 326 323 319 313 307 300 294 293 294 297 308 312 277 230 215 211 207 200 194 191 189 191 198 205 208 210 213 215 218 222 223 223 224 226 229 232 234 236 238 240 240 239 239 239
Height
742 744 745 746 748 750 751 753 755 757 761 764 767 771 774 777 781 783 786 788 791 795 799 803 806 809 812 814 816 818 819 822 824 826 828 829 831 832 834 835 836 837 839 840 841 842 843 845 847 848 849 851 852 853 854 855 856 856 857 857 858 858 859
739 741 742 743 745 746 747 750 753 755 757 760 764 768 771 773 776 779 782 785 788 792 796 799 803 806 809 811 814 816 817 819 821 823 826 827 829 831 832 833 834 836 837 838 839 841 842 844 845 847 848 849 850 852 853 854 854 855 856 856 857 857 858
735 736 736 738 739 740 742 744 748 751 753 756 760 763 767 769 772 774 778 781 785 789 792 796 799 802 806 809 812 814 815 817 819 821 823 825 827 829 831 832 833 834 836 837 838 840 841 843 844 845 847 848 849 850 851 852 853 854 854 855 856 856 857
729 729 729 732 732 735 738 741 745 747 749 753 755 759 762 765 769 772 775 778 781 786 789 792 796 799 803 806 809 811 812 814 816 818 820 822 824 827 829 830 832 833 834 835 837 838 840 841 843 844 845 846 847 848 850 851 851 852 853 854 854 855 855
724 724 727 730 732 735 737 738 741 744 747 750 752 756 759 762 766 769 772 775 778 782 785 789 793 797 800 803 806 808 809 811 813 815 818 820 822 825 826 828 830 831 832 834 835 837 838 840 841 842 843 844 845 847 848 849 850 851 852 852 853 853 854
720 722 725 728 730 732 733 734 737 739 743 746 749 753 757 760 764 766 770 773 776 780 783 787 791 794 797 800 803 805 807 809 811 813 816 818 820 823 824 826 827 829 831 832 834 835 836 838 839 840 841 842 843 845 846 847 848 849 850 851 851 852 852
715 717 720 722 724 727 728 730 733 737 740 743 747 751 754 757 761 763 767 770 773 777 781 784 788 791 795 798 800 803 805 807 808 811 813 815 818 820 821 823 825 827 829 830 832 833 834 836 837 838 840 841 841 842 844 845 846 847 848 849 849 850 851
709 712 714 716 718 721 724 727 730 734 738 741 745 748 751 755 758 761 764 767 770 774 777 780 784 787 791 795 798 800 802 805 806 808 810 813 815 817 818 821 822 825 827 828 830 831 832 833 834 836 837 838 839 840 841 843 844 845 846 847 847 848 849
705 707 709 710 713 716 719 723 727 731 735 738 742 745 748 751 754 757 760 763 767 770 773 777 780 784 788 792 795 798 801 804 805 806 808 809 811 813 815 818 819 822 824 825 827 829 830 831 832 834 835 836 837 838 839 840 841 842 844 844 845 846 847
709 708 707 707 710 712 715 720 726 731 734 737 739 742 745 748 750 754 757 760 764 766 770 774 778 782 785 788 791 795 799 802 804 805 806 806 808 810 812 815 817 819 821 822 824 825 827 829 830 831 833 833 834 835 836 837 838 840 841 841 843 843 844
717 715 714 713 712 713 716 720 724 728 731 734 737 740 742 745 748 751 754 757 760 763 767 771 775 779 782 785 788 791 794 797 801 803 803 804 805 807 809 812 814 816 817 819 821 822 824 826 827 828 830 830 831 832 833 834 835 837 838 839 840 841 842
729 725 725 724 721 720 720 721 723 725 727 731 734 737 739 742 744 747 750 753 756 760 764 768 771 775 779 782 786 788 790 792 795 798 800 802 803 804 806 809 811 813 815 816 818 819 821 823 824 825 826 827 828 829 830 831 832 833 835 836 837 838 839
740 736 734 731 730 730 729 728 728 727 727 729 730 733 736 738 741 744 747 750 753 757 760 764 768 772 775 778 781 784 786 788 790 793 796 799 801 802 804 806 808 810 812 813 815 816 818 819 821 822 823 824 825 826 827 828 830 831 832 833 835 836 837
748 745 741 738 738 738 738 738 736 733 732 732 733 733 735 736 738 740 742 746 749 753 756 760 764 767 771 774 777 779 781 783 786 788 791 795 798 801 802 803 805 807 809 811 812 813 814 816 817 819 820 821 822 823 824 825 826 828 829 830 832 833 834
755 754 751 748 747 745 744 745 744 742 740 738 739 739 738 740 741 741 743 744 747 750 753 756 760 763 767 769 771 773 776 779 783 785 788 791 794 797 798 800 801 803 806 808 809 810 811 813 814 816 816 818 819 820 821 822 823 824 826 827 829 830 832
762 762 760 757 755 752 751 751 750 748 746 743 743 743 742 743 744 744 745 746 747 749 751 753 756 759 762 764 766 769 773 776 779 781 784 786 788 791 793 796 798 800 802 804 805 807 809 810 812 813 813 814 815 817 818 819 820 821 822 824 825 827 828
768 768 766 764 761 758 756 755 753 752 750 748 748 746 745 744 743 744 745 746 748 749 751 753 755 757 759 760 762 766 769 771 774 776 779 781 783 786 788 791 794 795 797 800 802 804 806 807 809 809 810 811 812 813 814 815 816 817 819 820 822 824 825
773 772 770 768 766 764 761 759 758 756 753 752 750 749 747 745 743 743 743 744 746 747 750 751 752 753 755 756 758 761 764 766 769 771 773 775 777 780 783 786 789 791 794 796 798 800 802 804 805 806 807 808 809 810 811 811 812 814 815 817 818 820 822
777 776 774 771 770 768 766 764 762 760 757 755 752 750 749 747 745 743 742 744 745 745 746 747 747 748 750 751 755 757 759 762 764 766 768 770 772 775 778 782 784 786 789 791 794 797 798 800 801 802 804 805 806 806 807 808 809 811 812 813 815 817 819
782 780 776 773 771 770 769 767 765 762 759 756 754 751 749 748 746 744 743 744 747 746 744 744 745 746 748 750 753 755 758 760 761 762 764 766 769 771 774 776 778 781 784 787 790 793 794 795 797 799 800 801 802 803 804 804 806 807 809 810 811 814 816
785 781 778 774 772 772 772 770 767 764 760 757 755 752 749 747 745 743 742 743 745 746 744 743 743 745 746 748 750 752 754 756 757 759 761 763 766 767 769 771 773 776 779 783 785 788 789 792 794 795 796 797 799 800 800 801 802 804 805 807 808 811 813
787 783 778 775 772 771 771 771 770 767 762 759 758 754 748 745 744 743 742 741 742 744 744 743 742 742 743 744 745 747 748 750 752 754 756 759 762 763 764 766 768 771 775 778 781 784 786 788 790 791 793 794 796 797 797 797 799 800 802 803 805 808 810
786 782 777 774 773 771 770 770 769 767 763 759 756 753 747 743 741 742 742 741 740 740 743 743 742 741 741 742 742 744 745 746 748 750 752 754 756 757 759 761 763 766 770 774 777 779 782 784 786 788 790 791 792 793 794 794 796 797 798 800 802 805 807
783 781 778 776 775 772 770 769 767 766 764 759 754 753 750 745 741 740 742 741 739 738 740 741 741 740 740 740 740 741 742 743 745 746 748 750 750 751 754 757 759 762 765 769 772 774 777 780 782 785 786 787 788 790 791 791 792 794 795 797 799 802 804
782 781 779 778 777 775 772 770 768 766 764 760 755 753 751 748 743 741 742 741 739 738 738 738 739 739 739 739 738 738 739 740 741 743 744 745 745 747 750 753 755 758 761 764 767 770 774 777 779 781 782 783 785 786 788 789 790 791 792 794 797 799 800
784 782 780 779 778 776 774 772 769 766 763 760 756 752 750 748 745 741 740 740 740 739 737 737 737 737 737 736 736 736 736 736 737 738 738 739 741 743 747 749 752 755 758 760 763 766 770 773 775 776 778 780 782 783 784 785 786 788 789 791 793 795 797
785 784 783 781 778 775 773 772 771 768 764 761 757 752 748 747 745 742 740 739 739 739 737 736 735 734 733 732 731 731 731 731 731 732 732 734 737 740 743 746 749 751 753 756 759 762 765 768 771 773 774 776 778 779 780 781 782 784 785 787 789 791 793
784 783 783 782 779 776 774 771 770 769 765 760 756 752 748 746 745 743 742 740 739 738 736 735 733 731 729 726 725 725 725 725 726 727 728 730 733 736 739 741 744 747 749 752 755 758 761 764 766 769 770 772 773 774 774 776 778 779 780 782 784 786 788
784 782 780 779 778 776 774 771 770 769 765 760 756 752 748 746 745 743 741 739 737 735 734 732 730 728 725 723 721 720 720 720 721 722 724 726 728 731 734 737 740 743 746 749 752 754 757 759 762 764 765 766 767 768 769 771 773 774 775 777 779 781 782
782 780 778 776 774 772 771 770 768 767 764 759 755 751 748 747 745 743 740 737 734 733 730 728 727 725 722 719 718 716 716 716 717 718 719 721 723 726 728 732 736 739 742 745 748 751 753 755 757 759 760 761 762 763 765 767 769 770 771 772 774 776 777
778 777 775 773 771 769 769 767 766 764 760 756 753 749 747 746 745 743 739 735 732 730 727 724 723 721 718 716 715 714 713 713 713 713 714 716 719 721 723 727 731 735 738 741 744 747 748 750 752 754 755 757 758 759 761 763 765 767 767 768 770 771 773
775 773 772 771 769 767 766 764 763 759 755 751 750 747 745 744 744 742 739 735 732 728 724 721 719 716 714 713 711 710 710 710 709 709 710 712 715 717 719 722 726 730 734 737 740 742 743 745 748 751 752 753 754 755 758 760 762 763 763 764 766 767 769
774 771 770 769 767 766 764 762 759 755 750 748 747 745 743 741 741 739 737 734 730 726 722 718 716 713 711 709 707 705 705 705 705 705 706 708 711 713 716 719 722 726 729 732 734 736 739 742 744 746 747 748 749 752 754 756 757 758 759 761 762 763 765
775 771 768 766 765 764 762 759 756 753 749 746 745 743 741 738 737 736 733 730 728 724 720 715 712 710 707 705 703 701 700 699 700 701 702 704 707 710 713 716 719 721 723 725 727 731 735 738 740 741 742 744 746 749 751 752 753 753 754 755 756 757 760
774 771 767 764 763 761 759 757 755 752 749 746 743 740 738 735 733 732 729 727 724 721 718 713 709 706 703 701 699 697 695 694 695 696 698 700 703 706 709 712 714 716 718 720 722 725 728 731 733 735 737 740 743 745 746 746 746 746 747 748 749 751 754
772 769 765 763 761 758 756 755 753 751 749 744 740 737 734 732 730 728 726 723 721 718 715 711 707 703 700 698 696 694 691 690 690 692 694 696 699 702 706 709 711 712 714 717 719 721 723 725 727 729 733 736 738 740 741 741 741 742 744 746 747 749 750
771 767 763 761 759 756 753 752 751 750 747 741 737 735 732 729 726 724 722 720 717 715 712 709 705 701 698 696 694 692 689 688 687 689 691 692 694 698 702 705 706 708 710 712 714 717 720 722 723 726 729 731 733 735 737 738 740 742 744 745 747 748 749
766 763 760 758 756 753 751 749 747 746 742 737 735 733 730 726 723 721 719 717 714 711 708 705 702 699 696 694 693 690 688 686 685 687 689 690 692 694 696 698 701 704 706 708 710 713 715 717 720 724 726 728 730 732 734 735 737 739 740 742 744 746 747